Tracking 25710 objects as of 5-Jul-2022
HD Live streaming from Space Station
objects crossing your sky now

FENGYUN 1C DEB

Track FENGYUN 1C DEB now!
10-day predictions


NORAD ID: 36167
Int'l Code: 1999-025DSQ
Perigee: 713.4 km
Apogee: 834.9 km
Inclination: 98.9 °
Period: 100.2 minutes
Semi major axis: 7145 km
RCS: 0.0111 m2 (small)
Launch date: May 10, 1999
Source: People's Republic of China (PRC)
Launch site: Taiyaun Space Center, China (TSC)

Note: This is SATELLITE DEBRIS
aabbcc
Your satellite tracking list
Your tracking list is empty




NASA's NSSDC Master Catalog

Two Line Element Set (TLE):
1 36167U 99025DSQ 22185.79116062  .00000825  00000-0  28028-3 0  9996
2 36167  98.9301  27.5796 0084970  23.3537 337.1472 14.37424554493059
Source of the keplerian elements: AFSPC